Home   Weather   Salina   Past weeks

Flag for USA Past Weather in Salina, Kansas, USA — Yesterday and Last 2 Weeks

Now
73 °F

Clear.


Feels Like: 72 °F
Forecast: 60 / 80 °F
Wind: 7 mph from Northeast

Location: Salina Municipal Airport

Current Time: Aug 31, 2016 at 10:53:19 PM

Latest Report: Aug 31, 2016 at 9:53 PM


Visibility: 10 mi

Pressure: 30.11 "Hg

Humidity: 84%

Dew Point: 68 °F

Location of SalinaLocation

Past Weather in Salina — Graph

°F

Salina Temperature Yesterday

Maximum temperature yesterday: 86 °F (at 1:53 PM)
Minimum temperature yesterday: 71 °F (at 4:53 AM)
Average temperature yesterday: 75 °F

High & Low Weather Summary for the Past Weeks

 TemperatureHumidityPressure
High99 °F (Aug 17, 3:53 PM)97% (Aug 25, 5:53 AM)30.17 "Hg (Aug 25, 5:53 AM)
Low55 °F (Aug 21, 4:53 AM)27% (Aug 17, 2:53 PM)29.71 "Hg (Aug 19, 3:53 PM)
Average76 °F71%30.00 "Hg
* Reported Aug 16 9:53 PM — Aug 31 9:53 PM, Salina, Weather by CustomWeather, © 2016

Note: Actual official high and low records may vary slightly from our data, if they occured in-between our weather recording intervals... More about our weather records

Advertising

Salina Weather History for the Previous 24 Hours

Scroll right to see more
 ConditionsComfort  
Time TempWeatherWind HumidityBarometerVisibility
9:53 PM
Wed, Aug 31
73 °FClear.7 mph84%30.11 "Hg10 mi
8:53 PM73 °FSunny.8 mph90%30.09 "Hg10 mi
7:53 PM74 °FPassing clouds.8 mph91%30.09 "Hg10 mi
6:53 PM75 °FOvercast.9 mph85%30.08 "Hg10 mi
5:53 PM74 °FLight rain. Partly sunny.8 mph85%30.08 "Hg10 mi
4:53 PM72 °FLight rain. Partly sunny.9 mph87%30.09 "Hg10 mi
3:53 PM70 °FLight rain. Fog.9 mph87%30.10 "Hg5 mi
2:53 PM81 °FBroken clouds.6 mph69%30.09 "Hg10 mi
2:02 PM79 °FPassing clouds.5 mph72%30.14 "Hg10 mi
12:53 PM76 °FPartly sunny.7 mph80%30.12 "Hg10 mi
12:01 PM75 °FPartly sunny.7 mph85%30.17 "Hg10 mi
11:53 AM74 °FPartly sunny.7 mph88%30.14 "Hg10 mi
10:53 AM72 °FLight rain. Mostly cloudy.5 mph93%30.14 "Hg7 mi
9:53 AM72 °FHeavy rain. Fog.5 mph93%30.14 "Hg4 mi
8:53 AM72 °FHeavy rain. Fog.12 mph93%30.10 "Hg5 mi
7:59 AM72 °FThundershowers. Low clouds.12 mph97%30.14 "Hg7 mi
6:53 AM72 °FMostly cloudy.6 mph97%30.10 "Hg8 mi
5:53 AM72 °FLow clouds.3 mph93%30.09 "Hg9 mi
4:53 AM72 °FPassing clouds.3 mph93%30.09 "Hg7 mi
3:53 AM72 °FMostly cloudy.3 mph93%30.10 "Hg10 mi
2:53 AM72 °FPassing clouds.No wind93%30.09 "Hg9 mi
1:53 AM71 °FClear.5 mph96%30.10 "Hg10 mi
12:53 AM72 °FOvercast.5 mph93%30.12 "Hg10 mi
11:53 PM
Tue, Aug 30
73 °FMostly cloudy.5 mph94%30.13 "Hg8 mi
10:53 PM73 °FFog.3 mph94%30.11 "Hg6 mi
Weather by CustomWeather, © 2016

See weather overviewHow to use our weather pages